This is the latest recevied weather packets stored in our database for station/object K5FEP. If no packets are shown the sender has not sent any weather packets the latest 10 day(s).
| Time | Temp. | Humidity | Pressure | Rain* | Wind** | Luminosity | Snow |
|---|---|---|---|---|---|---|---|
| 1777912964 | 22.78° C | 28% | 1015 hPa | 0 mm | - | 984 W/m² | - |
| 1777912660 | 22.78° C | 30% | 1014.9 hPa | 0 mm | - | 979 W/m² | - |
| 1777912356 | 22.22° C | 30% | 1015 hPa | 0 mm | - | 977 W/m² | - |
| 1777912052 | 21.67° C | 31% | 1015.1 hPa | 0 mm | - | 979 W/m² | - |
| 1777911748 | 22.22° C | 29% | 1015.1 hPa | 0 mm | - | 967 W/m² | - |
| 1777911446 | 21.67° C | 30% | 1015.2 hPa | 0 mm | - | 979 W/m² | - |
| 1777911142 | 22.22° C | 27% | 1015.2 hPa | 0 mm | - | 965 W/m² | - |
| 1777910840 | 22.22° C | 30% | 1015.2 hPa | 0 mm | - | 960 W/m² | - |
| 1777910536 | 21.67° C | 30% | 1015.3 hPa | 0 mm | - | 958 W/m² | - |
| 1777910234 | 22.22° C | 29% | 1015.4 hPa | 0 mm | - | 949 W/m² | - |
| 1777909930 | 21.67° C | 33% | 1015.3 hPa | 0 mm | - | 937 W/m² | - |
| 1777909627 | 21.67° C | 34% | 1015.6 hPa | 0 mm | - | 924 W/m² | - |
| 1777909325 | 21.67° C | 36% | 1015.6 hPa | 0 mm | - | 909 W/m² | - |
| 1777909022 | 21.11° C | 33% | 1015.5 hPa | 0 mm | - | 902 W/m² | - |
| 1777908720 | 21.11° C | 32% | 1015.6 hPa | 0 mm | - | 899 W/m² | - |
| 1777908416 | 21.11° C | 36% | 1015.4 hPa | 0 mm | - | 884 W/m² | - |
| 1777908113 | 21.11° C | 33% | 1015.6 hPa | 0 mm | - | 879 W/m² | - |
| 1777907810 | 20.56° C | 34% | 1015.5 hPa | 0 mm | - | 860 W/m² | - |
| 1777907510 | 20.56° C | 34% | 1015.7 hPa | 0 mm | - | 847 W/m² | - |
| 1777907207 | 20.56° C | 36% | 1015.7 hPa | 0 mm | - | 816 W/m² | - |
| 1777906904 | 20.56° C | 38% | 1015.6 hPa | 0 mm | - | 839 W/m² | - |
| 1777906601 | 20° C | 37% | 1015.7 hPa | 0 mm | - | 837 W/m² | - |
| 1777906297 | 20° C | 37% | 1015.7 hPa | 0 mm | - | 576 W/m² | - |
| 1777905993 | 20.56° C | 38% | 1015.7 hPa | 0 mm | - | 520 W/m² | - |
| 1777905690 | 20° C | 40% | 1015.7 hPa | 0 mm | - | 876 W/m² | - |
* Rain latest hour (hover to see other rain measurements)
** Current wind speed in m/s (hover to see current wind gust speed)